Location: Unspecified
(0.0000°N, 0.0000°E)
Time: 11:55:01
(UTC+00:00)

X-37B - Pass Details

Date: 03 December 2021
Orbit: 329 x 342 km, 45.0° (Epoch: 06 December)

Event Time Altitude Azimuth Distance (km) Brightness Sun altitude
Exits shadow 04:24:56 58° 89° (E) 383 0.7 -19.6°
Drops below altitude 10° 04:27:24 10° 131° (SE) 1,244 4.2 -19.0°
Sets 04:29:24 0° 134° (SE) 2,079 5.6 -18.6°
